Wind_Speed
6 6 6 6 6 6 5 5 5 5 5 5 5 6 6 7 7 8 8 8 8 9 8 8 7 7 6 6 6 5 4 4 4 4 3 3 3 2 3 3 2 2 2
7 6 6 6 6 5 5 5 5 5 4 5 5 5 5 6 6 7 7 8 8 8 8 7 6 6 6 6 6 5 4 3 4 3 3 3 3 3 2 3 2 2 2
7 7 7 7 7 6 5 5 4 4 4 4 4 4 5 5 6 6 6 7 7 7 7 7 6 6 5 5 5 4 4 3 3 3 3 3 3 3 2 2 2 2 2
7 7 8 7 7 7 6 5 4 4 4 4 4 4 4 4 5 6 6 6 6 6 6 6 6 6 5 4 4 4 4 3 3 3 2 3 3 3 3 2 2 3 2
7 7 8 7 7 6 6 5 4 4 4 4 4 4 4 4 4 5 4 5 5 5 5 5 5 5 5 4 3 3 3 3 3 2 2 2 3 3 3 3 2 2 2
8 8 7 7 6 6 6 5 4 4 4 3 3 3 3 3 3 3 3 4 4 5 5 4 5 5 5 4 3 3 3 3 3 3 3 2 2 2 2 2 2 2 2
8 8 7 7 6 6 6 5 4 4 3 3 2 2 2 2 2 2 2 3 4 4 4 5 5 5 5 5 4 3 3 3 3 3 3 2 2 2 2 2 1 1 2
7 7 7 6 6 6 6 5 5 4 3 3 2 2 2 2 1 1 1 2 3 4 5 5 5 6 6 5 4 4 3 3 3 4 3 2 2 2 2 1 1 1 2
7 6 6 6 6 6 6 6 5 5 4 3 3 2 1 1 1 0 1 1 3 4 5 5 5 5 5 5 5 4 4 4 4 4 4 3 3 2 2 1 1 2 2
6 6 6 6 5 5 6 6 6 6 5 4 4 2 2 1 1 0 1 1 2 3 4 5 6 6 5 5 5 5 5 5 5 4 4 4 5 4 4 3 4 3 3
7 7 6 6 6 6 6 6 7 7 6 6 5 3 2 2 2 2 2 2 1 2 3 5 5 6 5 6 6 6 6 6 5 5 5 4 5 5 5 4 4 5 5
7 7 7 7 7 6 7 6 7 7 7 7 6 5 4 3 3 3 3 2 2 3 3 4 4 5 6 7 7 7 7 6 6 5 4 5 5 5 6 6 6 6 6
7 7 7 7 7 7 7 7 7 7 7 7 7 6 4 4 4 4 3 3 3 4 4 4 4 5 6 7 7 7 6 6 6 6 5 5 6 6 7 7 7 7 7
7 6 6 7 7 8 7 7 7 7 7 7 7 6 5 5 5 4 5 4 4 5 5 5 5 6 6 6 7 7 8 7 7 7 7 7 7 8 8 8 8 8 8
7 6 6 7 7 7 8 8 8 7 7 8 8 7 7 6 6 5 5 6 6 6 7 6 6 6 7 7 7 8 8 9 9 9 9 8 9 9 9 9 9 9 9
7 6 6 6 6 7 8 8 8 7 7 8 8 8 8 8 7 7 6 7 7 7 8 7 7 7 7 8 8 8 9 9 9 10 10 10 10 9 9 10 10 10 11
6 6 6 6 7 7 7 7 8 8 7 7 7 8 8 8 8 8 8 8 8 8 8 8 8 8 8 8 9 9 10 10 10 10 10 11 11 11 11 11 12 11 12
6 6 6 6 7 7 7 8 9 8 8 7 8 8 8 9 9 9 9 10 10 9 9 9 9 10 9 9 9 10 10 11 11 11 11 12 12 11 12 12 12 13 13
7 7 7 7 7 8 8 9 10 9 9 9 10 9 9 10 11 11 10 10 10 10 10 10 10 10 10 11 11 11 12 11 12 13 13 13 13 13 13 13 13 13 14
9 9 8 8 8 9 9 10 11 11 10 11 11 11 11 11 12 12 11 11 11 11 11 10 10 11 11 12 12 13 12 12 12 14 14 14 13 13 12 13 13 14 14
10 10 9 9 9 10 10 11 11 11 11 11 11 12 12 13 12 12 12 12 11 11 12 12 12 12 13 12 12 12 12 12 12 12 13 14 14 14 14 14 14 14 14
10 10 10 10 10 11 11 12 12 12 12 13 13 13 14 14 14 14 13 12 12 12 13 13 13 13 13 13 13 13 13 13 14 14 14 14 14 14 14 15 16 16 16
10 10 11 11 11 11 12 12 13 13 13 13 13 14 14 15 15 15 14 14 13 13 13 13 13 13 14 15 15 14 15 15 15 16 16 16 16 16 16 16 17 18 17
11 11 11 11 11 11 12 12 13 14 14 14 14 15 16 17 18 17 16 15 14 14 14 14 14 14 15 16 17 17 16 16 16 16 17 17 18 18 18 18 18 18 18
11 12 12 12 12 12 13 13 14 15 15 15 16 16 17 18 18 18 17 17 16 15 15 15 15 16 16 16 17 17 17 17 17 17 17 17 17 18 19 19 20 20 20
13 13 13 13 13 13 13 14 15 16 16 17 17 17 18 19 19 19 18 18 17 16 16 16 16 17 18 18 18 18 18 18 18 18 18 18 18 19 20 20 20 20 21
Wind_Direction
76 76 73 70 70 76 89 100 101 104 103 110 119 134 141 141 139 141 143 144 144 145 146 146 145 145 148 150 151 146 146 150 150 142 141 151 149 141 132 133 131 126 118
74 73 72 73 74 76 87 98 104 105 103 108 116 128 138 144 146 146 146 147 148 150 152 155 154 152 154 153 154 155 152 144 147 144 145 149 142 141 135 134 130 123 118
72 71 70 71 73 76 84 86 94 100 97 100 111 121 133 142 149 153 148 148 152 156 160 162 162 159 158 160 156 159 159 153 148 143 142 152 149 143 140 139 132 137 134
72 71 69 70 71 72 77 81 86 91 87 92 108 117 128 145 156 158 163 157 157 164 167 168 170 172 169 168 165 167 170 168 163 157 152 153 150 146 151 147 135 133 138
72 70 69 67 68 68 70 76 83 84 85 88 106 119 126 141 161 164 163 167 170 175 176 179 181 183 185 186 182 183 189 184 177 171 167 142 141 144 149 149 140 146 142
72 68 67 65 64 64 65 66 69 73 80 85 104 126 132 143 163 166 168 177 181 183 182 182 186 190 193 194 199 206 207 198 196 198 195 176 156 154 142 148 147 163 156
69 67 64 61 60 64 65 62 62 61 69 85 104 128 145 144 152 177 182 189 191 190 191 192 195 197 199 201 205 211 217 220 221 217 213 207 204 194 170 163 141 178 201
66 64 63 60 58 62 61 55 48 43 45 64 85 93 115 127 123 144 151 181 199 205 202 201 203 206 205 209 213 226 225 226 232 223 220 219 235 225 195 195 247 257 223
61 58 57 61 56 57 54 49 43 37 34 43 46 47 60 71 82 117 187 194 195 204 211 211 210 209 212 218 226 235 236 234 237 233 228 225 233 221 217 222 241 264 250
50 47 49 54 50 50 48 45 41 37 33 25 17 10 12 5 353 293 282 263 220 219 219 226 225 221 229 239 242 245 247 241 244 245 238 234 237 237 239 242 244 248 245
48 45 41 43 48 43 39 41 40 35 33 25 14 9 357 344 337 325 306 303 299 276 254 244 241 238 240 251 256 261 257 259 255 250 249 245 248 248 246 245 250 253 249
46 45 46 43 44 41 37 40 37 29 25 21 15 10 4 354 348 336 328 334 315 297 274 264 266 257 250 258 261 265 263 264 265 255 258 258 261 255 248 246 245 248 255
38 37 39 35 34 34 33 33 29 22 18 16 14 15 11 8 358 340 333 322 315 309 298 280 282 275 263 262 265 263 261 266 268 262 264 266 265 259 256 251 249 251 257
31 28 29 31 29 27 26 22 17 15 14 10 8 10 8 5 1 354 349 339 324 318 317 301 295 292 280 270 268 265 265 260 260 264 260 262 265 262 263 262 257 258 257
26 25 25 27 23 20 19 18 13 9 10 10 7 4 1 359 356 351 345 340 334 328 327 321 305 299 292 281 277 275 273 270 268 262 265 264 265 265 265 264 259 258 258
20 21 18 17 8 6 7 7 5 2 2 4 5 2 358 356 356 350 344 334 330 328 327 322 311 303 299 295 287 279 274 277 272 270 269 268 267 267 265 263 262 260 260
12 12 7 2 356 355 356 357 358 0 359 360 359 356 351 345 347 345 342 337 331 323 321 319 311 301 295 295 290 284 281 279 278 277 274 272 271 268 267 267 266 265 264
3 360 352 348 347 347 348 349 351 356 356 355 348 344 343 340 337 332 332 333 328 322 319 318 317 310 300 297 294 290 287 284 281 279 279 279 277 273 271 267 268 269 269
349 348 342 341 342 339 336 338 342 344 344 344 343 339 339 339 337 332 330 327 327 323 320 317 316 311 305 300 296 293 290 289 286 281 280 278 279 277 273 270 270 272 273
342 343 336 333 333 333 333 332 331 332 334 338 339 338 335 333 332 330 329 325 324 322 321 318 314 312 309 305 302 298 294 291 289 283 281 279 279 277 278 277 273 271 274
332 335 334 333 332 331 332 332 332 333 332 331 331 330 329 332 329 327 324 323 322 319 317 315 313 308 304 303 303 300 297 298 294 291 284 281 282 281 276 275 275 273 274
324 327 327 329 329 327 327 327 328 329 330 329 327 327 327 326 324 324 324 321 319 317 316 315 312 310 308 305 302 300 299 296 292 291 290 286 284 283 280 277 275 273 272
321 321 322 322 324 322 324 324 325 326 327 327 325 324 323 321 320 319 318 317 315 312 312 311 309 309 308 305 302 300 298 295 291 291 290 288 285 285 283 279 277 273 273
318 319 320 320 319 318 320 321 321 322 323 323 322 322 322 320 318 317 319 316 311 308 309 310 311 310 309 305 300 298 296 293 292 290 290 288 284 282 282 283 281 275 274
311 315 317 319 318 317 316 317 319 320 320 320 320 322 323 322 319 316 314 315 310 308 308 308 310 310 308 306 303 299 295 294 291 289 291 288 284 282 281 282 281 278 276
305 308 310 313 314 314 313 314 315 317 317 318 318 319 320 320 319 314 310 311 310 307 306 307 307 307 307 306 305 304 299 298 296 292 289 286 286 284 283 281 281 278 277
Height
5885 5884 5884 5884 5883 5883 5883 5883 5883 5882 5882 5882 5882 5882 5883 5883 5884 5885 5885 5886 5887 5888 5888 5889 5891 5891 5892 5893 5894 5895 5895 5896 5896 5897 5897 5898 5898 5899 5899 5900 5900 5901 5901
5886 5886 5886 5885 5885 5885 5885 5884 5884 5884 5884 5884 5883 5884 5884 5884 5885 5886 5886 5887 5888 5889 5889 5890 5891 5892 5893 5894 5895 5895 5896 5896 5897 5897 5898 5898 5899 5899 5900 5900 5901 5901 5902
5888 5887 5887 5887 5887 5886 5886 5886 5885 5885 5885 5885 5885 5885 5885 5886 5886 5887 5887 5888 5889 5890 5891 5891 5892 5893 5894 5894 5895 5896 5896 5897 5897 5898 5898 5898 5899 5899 5900 5900 5901 5901 5902
5890 5889 5889 5888 5888 5888 5887 5887 5887 5886 5886 5886 5886 5886 5886 5887 5888 5888 5889 5889 5890 5891 5891 5892 5893 5894 5894 5895 5896 5896 5897 5897 5898 5898 5898 5899 5899 5899 5900 5900 5901 5901 5902
5891 5891 5890 5890 5890 5889 5889 5888 5888 5888 5888 5887 5887 5887 5888 5888 5888 5889 5889 5890 5891 5891 5892 5893 5893 5894 5895 5895 5896 5896 5897 5897 5898 5898 5899 5899 5899 5899 5900 5901 5901 5901 5902
5893 5893 5892 5892 5891 5891 5890 5890 5889 5889 5889 5889 5888 5889 5889 5889 5889 5890 5890 5890 5891 5892 5892 5893 5893 5894 5895 5895 5896 5897 5897 5897 5898 5898 5899 5899 5899 5899 5900 5901 5901 5901 5902
5895 5894 5894 5893 5893 5892 5892 5891 5891 5890 5890 5890 5890 5890 5890 5890 5890 5890 5891 5891 5891 5892 5892 5893 5893 5894 5895 5895 5896 5897 5897 5897 5898 5899 5899 5899 5899 5900 5900 5901 5901 5902 5902
5896 5896 5895 5895 5894 5894 5893 5893 5892 5892 5891 5891 5891 5891 5891 5891 5891 5891 5891 5891 5891 5892 5892 5893 5893 5893 5894 5895 5896 5896 5897 5897 5898 5898 5899 5899 5899 5900 5900 5901 5901 5902 5902
5898 5897 5897 5896 5896 5895 5895 5894 5894 5893 5892 5892 5892 5892 5891 5891 5891 5891 5891 5891 5891 5892 5892 5892 5893 5893 5894 5894 5895 5896 5896 5897 5897 5897 5898 5898 5899 5899 5900 5900 5901 5902 5902
5899 5899 5898 5897 5897 5896 5896 5895 5895 5894 5894 5893 5893 5892 5892 5892 5892 5892 5891 5891 5891 5891 5891 5892 5893 5893 5894 5894 5895 5895 5896 5896 5897 5897 5897 5898 5898 5899 5900 5900 5901 5901 5902
5901 5900 5900 5899 5899 5898 5897 5897 5896 5896 5895 5894 5894 5894 5893 5893 5892 5892 5892 5892 5892 5891 5891 5892 5892 5892 5893 5893 5894 5894 5895 5895 5896 5896 5897 5897 5897 5898 5899 5900 5900 5901 5901
5902 5902 5902 5901 5900 5899 5899 5898 5898 5897 5896 5895 5895 5894 5894 5893 5893 5892 5892 5892 5892 5891 5891 5891 5892 5892 5892 5893 5893 5894 5894 5895 5895 5895 5896 5897 5897 5897 5898 5899 5899 5900 5900
5904 5903 5903 5903 5902 5901 5901 5900 5899 5898 5897 5896 5896 5895 5894 5894 5893 5893 5892 5892 5892 5892 5891 5891 5891 5891 5891 5892 5892 5893 5893 5894 5894 5894 5895 5895 5896 5897 5897 5898 5898 5899 5899
5905 5905 5904 5904 5903 5903 5902 5901 5900 5899 5899 5898 5897 5896 5895 5895 5894 5894 5893 5893 5892 5892 5891 5891 5891 5891 5891 5891 5891 5891 5891 5892 5893 5894 5893 5894 5895 5895 5896 5896 5897 5897 5897
5907 5906 5906 5905 5905 5904 5903 5902 5901 5900 5899 5899 5898 5897 5896 5895 5895 5894 5893 5893 5892 5892 5891 5890 5890 5890 5890 5890 5890 5890 5890 5891 5892 5892 5892 5892 5893 5894 5894 5894 5895 5895 5895
5907 5907 5907 5906 5906 5905 5904 5903 5902 5901 5900 5899 5898 5897 5896 5896 5895 5894 5894 5893 5892 5892 5891 5890 5890 5890 5889 5889 5889 5889 5889 5890 5890 5890 5891 5891 5891 5891 5892 5892 5893 5893 5893
5909 5908 5908 5907 5907 5906 5905 5904 5903 5902 5900 5899 5898 5898 5897 5896 5895 5894 5893 5893 5892 5891 5890 5890 5889 5889 5888 5888 5888 5888 5888 5888 5888 5888 5888 5889 5889 5889 5889 5890 5890 5890 5891
5910 5909 5908 5907 5907 5907 5906 5905 5903 5902 5900 5899 5899 5898 5898 5896 5895 5894 5893 5892 5891 5890 5889 5889 5888 5887 5887 5887 5886 5886 5886 5886 5885 5886 5886 5886 5886 5887 5887 5887 5887 5888 5888
5910 5910 5909 5907 5907 5907 5906 5905 5904 5903 5901 5900 5899 5899 5898 5896 5895 5894 5893 5892 5891 5890 5889 5888 5887 5886 5886 5885 5885 5885 5884 5884 5883 5883 5884 5884 5884 5884 5884 5884 5884 5885 5885
5911 5910 5909 5908 5907 5907 5906 5905 5904 5903 5902 5901 5900 5898 5897 5896 5895 5893 5892 5891 5890 5889 5887 5886 5885 5884 5884 5883 5883 5882 5882 5882 5881 5881 5881 5881 5880 5881 5881 5881 5881 5881 5882
5911 5910 5909 5908 5907 5906 5905 5904 5903 5902 5901 5900 5899 5898 5897 5895 5894 5892 5891 5890 5888 5887 5886 5884 5884 5882 5881 5881 5880 5880 5879 5879 5879 5878 5878 5878 5877 5877 5878 5878 5878 5878 5878
5910 5909 5908 5907 5907 5906 5905 5904 5903 5901 5900 5899 5898 5897 5896 5894 5892 5891 5889 5888 5886 5885 5884 5883 5881 5880 5879 5879 5878 5877 5877 5877 5876 5875 5875 5874 5874 5874 5874 5874 5874 5874 5874
5909 5909 5908 5907 5906 5905 5903 5902 5901 5900 5899 5898 5897 5895 5894 5892 5891 5889 5888 5886 5885 5883 5882 5881 5879 5878 5877 5876 5875 5874 5873 5873 5872 5872 5871 5871 5870 5870 5870 5869 5869 5869 5869
5908 5907 5906 5905 5904 5903 5902 5901 5900 5899 5898 5897 5895 5894 5892 5890 5888 5886 5885 5884 5882 5881 5880 5878 5877 5876 5875 5873 5872 5871 5870 5868 5868 5868 5867 5866 5866 5865 5865 5865 5865 5864 5864
5906 5906 5905 5904 5903 5902 5901 5900 5899 5897 5896 5895 5893 5891 5890 5888 5886 5884 5882 5881 5879 5878 5877 5875 5874 5873 5871 5870 5868 5867 5866 5864 5863 5863 5862 5862 5861 5861 5861 5861 5860 5859 5859
5905 5904 5903 5902 5901 5900 5899 5898 5897 5895 5894 5892 5891 5889 5887 5885 5883 5881 5879 5878 5876 5875 5873 5872 5871 5869 5868 5866 5865 5863 5862 5860 5859 5858 5858 5857 5856 5856 5855 5855 5855 5855 5854